Hourly Data Report for March 02, 2021

OTTAWA INTL A
ONTARIO
Current Station Operator: NAVCAN

45°19'00.000" N
75°40'00.000" W
114.90 m
6106001
71628
YOW

Download Data

Hourly Data (March 2021)
Hourly Data Report for March 2, 2021
TIME
LST
Temp Definition
°C
Dew Point Definition
°C
Rel Hum Definition
%
Precip. Amount Definition
mm

Wind Dir Definition
10's deg

Wind Spd Definition
km/h
Visibility Definition
km
Stn Press Definition
kPa
Hmdx Definition


Wind Chill Definition


Weather Definition


00:00 -16.7 -24.1 53   31 38 24.1 100.33   -29 LegendNANA
01:00 -17.3 -25.0 52   30 37 24.1 100.40   -30 Clear
02:00 -17.5 -24.6 55   29 32 24.1 100.50   -30 LegendNANA
03:00 -17.7 -24.1 58   29 36 24.1 100.54   -31 LegendNANA
04:00 -17.8 -24.0 59   29 35 24.1 100.65   -30 Clear
05:00 -18.1 -24.2 59   29 35 24.1 100.73   -31 LegendNANA
06:00 -18.4 -24.5 59   28 31 24.1 100.74   -31 LegendNANA
07:00 -18.5 -24.4 60   29 26 24.1 100.82   -30 Clear
08:00 -17.9 -23.8 60   29 27 24.1 100.92   -29 LegendNANA
09:00 -16.7 -23.3 57   29 31 24.1 100.94   -28 LegendNANA
10:00 -15.5 -22.6 55   29 23 24.1 100.90   -25 Clear
11:00 -14.3 -21.9 53   25 26 24.1 100.88   -24 LegendNANA
12:00 -13.1 -21.1 52   25 34 24.1 100.85   -24 LegendNANA
13:00 -11.5 -20.9 46   27 23 24.1 100.73   -20 Clear
14:00 -10.0 -20.5 43   28 27 24.1 100.63   -19 LegendNANA
15:00 -8.9 -18.9 45   30 18 24.1 100.52   -16 LegendNANA
16:00 -8.1 -19.2 41   27 15 24.1 100.43   -14 Mostly Cloudy
17:00 -7.9 -19.3 40   24 9 24.1 100.35   -12 LegendNANA
18:00 -8.8 -19.3 43   15 7 24.1 100.30   -13 LegendNANA
19:00 -8.5 -17.0 51   18 14 24.1 100.20   -15 Mostly Cloudy
20:00 -8.3 -15.6 56   19 19 24.1 100.13   -16 LegendNANA
21:00 -8.9 -11.5 82   21 13 1.2 100.08   -15 Snow
22:00 -8.8 -10.2 90   24 3 1.0 100.02   -10 Snow
23:00 -8.6 -9.8 91   16 8 1.0 99.86   -13 Snow

Notes on Data Quality.

Legend

  • E = Estimated
  • M = Missing
  • NA = Not Available*
  • [empty] = Indicates an unobserved value
Date modified: